#timestamp,LO_Frequency,Hit,StdDev 
1642100415.3,286047000.6,N
1642100435.2,286046999.1,N
1642100455.9,286047000.5,N
1642100475.7,286046998.2,N
1642100495.6,286047000.1,N
1642100515.4,286047004.4,Y
1642100535.3,286047003.8,P
1642100555.1,286047002.7,N
1642100556.0,286047002.7,N
1642100575.8,286047011.9,Y
1642100595.7,286047002.7,P
1642100615.5,286047002.2,P
1642100635.4,286047000.4,N
1642100655.2,286046999.0,N
1642100675.0,286047002.2,N
1642100675.9,286047002.2,N
1642100695.8,286047003.9,Y
1642100715.6,286047000.5,P
1642100735.5,286046999.5,N
1642100755.3,286046996.6,P
1642100775.1,286046996.7,N
1642100795.9,286046999.6,N
1642100815.7,286046996.8,N
1642100835.5,286046996.8,N
1642100855.4,286046995.1,N
1642100875.2,286046997.2,N
1642100895.1,286046999.6,N
1642100896.0,286046999.6,N
1642100915.8,286046994.9,N
1642100935.6,286046995.7,N
1642100955.5,286046995.1,N
1642100975.3,286046996.7,N
1642100995.2,286046995.0,N
1642101015.9,286046997.5,N
1642101035.7,286046995.5,N
1642101055.6,286046997.7,N
1642101075.4,286046997.5,N
1642101095.2,286046994.1,Y
1642101115.1,286046998.6,P
1642101116.0,286046998.6,N
1642101135.8,286047000.4,N
1642101155.7,286046998.9,N
1642101175.5,286046999.9,N
1642101195.3,286047001.3,N
1642101215.2,286047001.6,N
1642101235.0,286047001.4,N
1642101235.9,286047001.4,N
1642101255.8,286047003.0,N
1642101275.6,286047004.8,N
1642101295.4,286047005.7,N
1642101315.3,286047001.5,N
1642101335.1,286047000.8,N
1642101355.8,286047000.2,N
1642101375.7,286047001.4,N
1642101395.5,286047002.1,N
1642101415.4,286047000.1,N
1642101435.2,286047000.4,N
1642101455.0,286047000.8,N
1642101455.9,286047000.8,N
1642101475.8,286047000.4,N
1642101495.6,286046996.9,N
1642101515.5,286047000.6,N
1642101535.3,286047001.6,N
1642101555.1,286046999.7,N
1642101575.9,286047000.2,N
1642101595.7,286047004.2,N
1642101615.6,286047003.9,N
1642101635.4,286047002.3,N
1642101655.2,286047001.3,N
1642101675.1,286047003.9,N
1642101676.0,286047003.9,N
1642101695.8,286046999.8,N
1642101715.6,286046999.7,N
1642101735.5,286046999.3,N
1642101755.3,286046998.5,N
1642101775.2,286046998.3,N
1642101795.9,286046999.9,N
1642101815.7,286047002.2,N
1642101835.6,286047000.8,N
1642101855.4,286047003.9,N
1642101875.3,286047002.1,N
1642101895.1,286047004.1,N
1642101896.0,286047004.1,N
1642101915.8,286047001.5,N
1642101935.7,286047002.0,N
1642101955.5,286047000.1,N
1642101975.4,286047000.4,N
1642101995.2,286046998.2,N
1642102015.0,286047000.8,N
1642102015.9,286047000.8,N
1642102035.8,286047001.6,N
1642102055.6,286047000.9,N
1642102075.4,286047001.0,N
1642102095.3,286047002.5,N
1642102115.1,286047000.4,N
1642102135.9,286047002.6,N
1642102155.7,286047002.4,N
1642102175.5,286047000.7,N
1642102195.4,286047002.4,N
1642102215.2,286047002.1,N
1642102235.1,286047000.5,N
1642102236.0,286047000.5,N
1642102255.8,286047003.5,N
1642102275.6,286047001.8,N
1642102295.5,286047001.4,N
1642102315.3,286047000.2,N
1642102335.1,286047002.7,N
1642102355.9,286047000.1,N
1642102375.7,286046998.2,N
1642102395.6,286047000.0,N
1642102415.4,286047000.3,N
1642102435.2,286047001.3,N
1642102455.1,286047005.5,Y
1642102456.0,286047005.5,P
1642102475.8,286047001.6,N
1642102495.7,286047004.1,N
1642102515.5,286047001.4,N
1642102535.3,286047003.8,N
1642102555.2,286047003.6,N
1642102575.0,286047003.9,N
1642102575.9,286047003.9,N
1642102595.8,286047007.0,Y
1642102615.6,286047001.8,P
1642102635.4,286046998.1,N
1642102655.3,286047002.4,N
1642102675.1,286047001.9,N
1642102695.9,286047003.6,N
1642102715.7,286047002.9,N
1642102735.5,286047001.6,N
1642102755.4,286047002.3,N
1642102775.2,286047000.1,N
1642102795.0,286046999.1,N
1642102795.9,286046999.1,N
1642102815.8,286046998.4,N
1642102835.6,286046999.5,N
1642102855.5,286046998.6,N
1642102875.3,286046997.1,N
1642102895.1,286047000.5,N
1642102915.9,286047002.3,N
1642102935.7,286046999.9,N
1642102955.5,286046998.7,N
1642102975.4,286047000.2,N
1642102995.2,286046998.7,N
1642103015.1,286047000.2,N
1642103016.0,286047000.2,N
1642103035.8,286047000.3,N
1642103055.6,286047002.0,N
1642103075.5,286047003.5,N
1642103095.3,286047001.9,N
1642103115.2,286047000.6,N
1642103135.9,286046998.4,N
1642103155.7,286046998.9,N
1642103175.6,286047000.1,N
1642103195.4,286047002.7,N
1642103215.3,286047011.9,Y
1642103235.1,286047002.9,P
1642103236.0,286047002.9,N
1642103255.8,286047001.9,N
1642103275.7,286047000.2,N
1642103295.5,286047000.3,N
1642103315.4,286047000.7,N
1642103335.2,286047000.9,N
1642103355.0,286046999.7,N
1642103355.9,286046999.7,N
1642103375.8,286047002.0,N
1642103395.6,286047003.4,Y
1642103415.5,286047000.9,P
1642103435.3,286046998.5,P
1642103455.1,286047001.2,N
1642103475.9,286046996.6,Y
1642103495.7,286046998.9,P
1642103515.5,286047001.0,N
1642103535.4,286047000.3,N
1642103555.2,286047000.8,N
1642103575.1,286046999.8,N
1642103576.0,286046999.8,N
1642103595.8,286047002.3,Y
1642103615.6,286047001.6,P
1642103635.5,286047006.0,P
1642103655.3,286047005.7,N
1642103675.2,286047005.1,N
1642103695.9,286047005.1,N
1642103715.7,286047006.0,N
1642103735.6,286047001.9,N
1642103755.4,286047001.4,N
1642103775.3,286047006.0,N
1642103795.1,286047005.0,N
1642103796.0,286047005.0,N
1642103815.8,286047007.2,Y
1642103835.7,286047002.2,P
1642103855.5,286047000.9,N
1642103875.3,286047001.1,N
1642103895.2,286047000.3,N
1642103915.0,286047000.3,N
1642103915.9,286047000.3,N
1642103935.8,286047000.2,N
1642103955.6,286047004.4,Y
1642103975.4,286047002.6,P
1642103995.3,286047001.2,N
